Orbital Elements at Epoch 2459000.5 (2020-May-31.0) TDB
Reference: JPL 13 (heliocentric ecliptic J2000)
Element | Value | Uncertainty (1-sigma) | Units |
e | .01007047406662995 | 8.7341e-08 | |
a | 2.864389962703138 | 3.135e-08 | au |
q | 2.835544197867021 | 2.4603e-07 | au |
i | 3.004444101636734 | 5.6719e-06 | deg |
node | 126.3404033952479 | 0.00019654 | deg |
peri | 32.28692905370016 | 0.0004986 | deg |
M | 199.2209076630734 | 0.00046141 | deg |
tp | 2459791.312842531483 (2022-Jul-30.81284253) | 0.0022763 | TDB |
period | 1770.706745344324 4.85 | 2.907e-05 7.959e-08 | d yr |
n | .2033086511623335 | 3.3377e-09 | deg/d |
Q | 2.893235727539255 | 3.1665e-08 | au |
|
| | Orbit Determination Parameters
Additional Information
|